FW0115 Weather Reports


Display with metric or nautical units.
time (UTC)temp
F
wind
direction
speed
MPH
gust
MPH
rain 1hr
in
rain 24hr
in
rain mn
in
humidity
%
barometer
mb
20211017132305 35 315 6.0 6.0 0.00 0.00 0.00 88 1004.1
20211017131204 35 315 7.0 7.0 0.00 0.00 0.00 90 1004.1
20211017130104 35 338 4.0 6.0 0.00 0.00 0.00 90 1003.7
20211017125004 35 270 5.0 6.0 0.00 0.00 0.00 90 1003.7
20211017123903 34 225 2.0 5.0 0.00 0.00 0.00 91 1003.7
20211017122707 34 270 3.0 6.0 0.00 0.00 0.00 91 1003.4
20211017121704 34 338 3.0 4.0 0.00 0.00 0.00 93 1003.4
20211017120506 32 293 3.0 4.0 0.00 0.00 0.00 96 1003.4
20211017115404 29 270 2.0 2.0 0.00 0.00 0.00 98 1003.4
20211017114304 29 270 0.0 1.0 0.00 0.00 0.00 98 1003.4
20211017113004 29 293 0.0 3.0 0.00 0.00 0.00 98 1003.0
20211017111903 29 293 0.0 1.0 0.00 0.00 0.00 96 1003.0
20211017110804 29 338 1.0 1.0 0.00 0.00 0.00 96 1002.7
20211017105704 29 90 0.0 1.0 0.00 0.00 0.00 96 1003.0
20211017104503 29 135 1.0 1.0 0.00 0.00 0.00 96 1002.7
20211017103503 29 135 0.0 0.0 0.00 0.00 0.00 96 1002.7
20211017102203 29 158 0.0 0.0 0.00 0.00 0.00 95 1002.7
20211017101004 30 0 1.0 1.0 0.00 0.00 0.00 95 1002.7
20211017095903 30 203 0.0 1.0 0.00 0.00 0.00 93 1002.7
20211017094804 31 248 0.0 1.0 0.00 0.00 0.00 93 1002.7
20211017093703 31 158 0.0 0.0 0.00 0.00 0.00 91 1002.7
20211017092603 31 225 0.0 2.0 0.00 0.00 0.00 88 1002.7
20211017091504 32 158 0.0 0.0 0.00 0.00 0.00 90 1002.7
20211017090404 32 113 0.0 1.0 0.00 0.00 0.00 88 1002.7
20211017085203 33 113 1.0 1.0 0.00 0.00 0.00 88 1002.7
20211017084103 34 113 1.0 1.0 0.00 0.00 0.00 86 1002.7
20211017083003 34 158 0.0 1.0 0.00 0.00 0.00 86 1002.7
20211017081803 34 113 0.0 2.0 0.00 0.00 0.00 86 1002.7
20211017080703 34 135 1.0 1.0 0.00 0.00 0.00 85 1002.7
20211017075505 35 113 1.0 1.0 0.00 0.00 0.00 83 1002.7
20211017074404 36 135 0.0 2.0 0.00 0.00 0.00 83 1002.7
20211017073302 36 158 1.0 2.0 0.00 0.00 0.00 83 1002.7
20211017072203 36 135 1.0 2.0 0.00 0.00 0.00 83 1003.0
20211017071103 36 158 1.0 1.0 0.00 0.00 0.00 80 1003.0
20211017070005 37 135 1.0 2.0 0.00 0.00 0.00 81 1003.0
20211017064903 36 135 1.0 1.0 0.00 0.00 0.00 81 1003.0
20211017063803 37 135 0.0 0.0 0.00 0.00 0.00 80 1003.0
20211017062603 38 113 1.0 2.0 0.00 0.00 0.00 78 1003.0
20211017061403 39 113 2.0 2.0 0.00 0.00 0.00 76 1003.4
20211017060357 39 113 1.0 1.0 0.00 0.00 0.00 75 1003.4
20211017055403 40 180 0.0 1.0 0.00 0.00 0.00 74 1003.4
20211017054303 41 113 1.0 1.0 0.00 0.00 0.00 73 1003.4
20211017053005 42 135 2.0 2.0 0.00 0.00 0.00 71 1003.7
20211017052004 42 158 2.0 3.0 0.00 0.00 0.00 71 1003.7
20211017050904 43 113 2.0 3.0 0.00 0.00 0.00 71 1003.7
20211017045803 42 135 1.0 2.0 0.00 0.00 0.00 73 1003.7
20211017044704 41 113 1.0 2.0 0.00 0.00 0.00 75 1003.7
20211017043603 41 135 0.0 1.0 0.00 0.00 0.00 75 1003.7
20211017042404 40 113 1.0 1.0 0.00 0.00 0.00 76 1004.1
20211017041303 40 158 0.0 1.0 0.00 0.00 0.00 75 1004.1
20211017040204 40 135 0.0 0.0 0.00 0.00 0.00 75 1004.1
20211017035103 40 158 0.0 0.0 0.00 0.00 0.00 74 1004.4
20211017033503 40 113 0.0 0.0 0.00 0.00 0.00 75 1004.7
20211017032403 40 270 0.0 0.0 0.00 0.00 0.00 75 1005.1
20211017031402 40 270 0.0 0.0 0.00 0.00 0.00 74 1004.7
20211017025903 40 270 0.0 0.0 0.00 0.00 0.00 73 1005.1
20211017024504 41 248 0.0 0.0 0.00 0.00 0.00 71 1005.4
20211017023402 42 203 0.0 0.0 0.00 0.00 0.00 71 1005.4
20211017022102 42 203 0.0 0.0 0.00 0.00 0.00 73 1005.8
20211017020902 43 203 0.0 0.0 0.00 0.00 0.00 70 1005.8
20211017015803 43 203 0.0 0.0 0.00 0.00 0.00 69 1005.8
20211017014603 43 248 0.0 0.0 0.00 0.00 0.00 66 1005.8
20211017013403 45 248 0.0 0.0 0.00 0.00 0.00 63 1005.8
20211017012305 46 248 0.0 0.0 0.00 0.00 0.00 61 1006.1
20211017011203 48 248 0.0 0.0 0.00 0.00 0.00 60 1006.1
20211017010103 50 180 0.0 0.0 0.00 0.00 0.00 59 1006.1
20211017005004 52 180 0.0 0.0 0.00 0.00 0.00 55 1006.1
20211017003903 54 180 0.0 0.0 0.00 0.00 0.00 54 1006.4
20211017002902 56 113 2.0 3.0 0.00 0.00 0.00 50 1006.1
20211017001804 57 113 1.0 1.0 0.00 0.00 0.00 50 1006.4
20211017000704 59 90 0.0 1.0 0.00 0.00 0.00 48 1006.8
20211016235703 61 158 0.0 0.0 0.00 0.00 0.00 45 1006.8
20211016234603 62 90 0.0 0.0 0.00 0.00 0.00 44 1007.1
20211016233504 63 90 2.0 2.0 0.00 0.00 0.00 44 1007.1
20211016232503 63 68 1.0 2.0 0.00 0.00 0.00 44 1007.5
20211016231403 62 45 0.0 1.0 0.00 0.00 0.00 43 1007.5
20211016230203 63 135 0.0 2.0 0.00 0.00 0.00 41 1007.5
20211016225103 64 135 2.0 3.0 0.00 0.00 0.00 41 1007.5
20211016224004 65 180 2.0 4.0 0.00 0.00 0.00 40 1007.5
20211016223004 67 135 6.0 6.0 0.00 0.00 0.00 40 1007.5
20211016221903 66 270 4.0 5.0 0.00 0.00 0.00 40 1007.1
20211016220804 65 203 2.0 3.0 0.00 0.00 0.00 41 1007.5
20211016215803 65 203 0.0 3.0 0.00 0.00 0.00 40 1007.5
20211016214703 64 158 4.0 5.0 0.00 0.00 0.00 40 1007.5
20211016213603 64 180 2.0 5.0 0.00 0.00 0.00 41 1007.5
20211016212503 63 270 4.0 7.0 0.00 0.00 0.00 44 1007.8
20211016211403 62 203 5.0 5.0 0.00 0.00 0.00 44 1007.8
20211016210305 62 158 6.0 6.0 0.00 0.00 0.00 44 1007.5
20211016205306 62 180 5.0 5.0 0.00 0.00 0.00 44 1007.5
20211016204203 63 203 3.0 5.0 0.00 0.00 0.00 43 1007.5
20211016203103 62 158 1.0 6.0 0.00 0.00 0.00 43 1007.5
20211016202004 63 180 5.0 8.0 0.00 0.00 0.00 44 1007.5
20211016200903 63 203 5.0 6.0 0.00 0.00 0.00 44 1007.8
20211016195803 61 203 3.0 6.0 0.00 0.00 0.00 45 1007.8
20211016194703 60 180 3.0 7.0 0.00 0.00 0.00 45 1008.1
20211016193703 60 158 4.0 6.0 0.00 0.00 0.00 45 1008.5
20211016192603 61 113 4.0 9.0 0.00 0.00 0.00 45 1008.1
20211016191505 59 158 4.0 7.0 0.00 0.00 0.00 46 1008.5
20211016190503 58 113 4.0 7.0 0.00 0.00 0.00 46 1008.8
20211016185404 58 180 7.0 7.0 0.00 0.00 0.00 49 1008.8
20211016184304 57 180 9.0 9.0 0.00 0.00 0.00 49 1009.1
20211016183203 56 158 6.0 9.0 0.00 0.00 0.00 50 1009.1
20211016182103 55 180 6.0 8.0 0.00 0.00 0.00 50 1009.1
20211016181004 55 158 10.0 10.0 0.00 0.00 0.00 51 1009.5
20211016175903 54 158 6.0 8.0 0.00 0.00 0.00 51 1009.5
20211016174803 53 113 3.0 9.0 0.00 0.00 0.00 51 1009.8
20211016173703 54 113 7.0 9.0 0.00 0.00 0.00 51 1009.8
20211016172603 53 113 7.0 8.0 0.00 0.00 0.00 53 1009.8
20211016171503 52 113 8.0 8.0 0.00 0.00 0.00 54 1010.2
20211016170403 51 113 6.0 8.0 0.00 0.00 0.00 55 1009.8
20211016165306 50 113 5.0 6.0 0.00 0.00 0.00 55 1010.2
20211016164203 49 158 2.0 5.0 0.00 0.00 0.00 59 1010.2
20211016163103 46 113 4.0 8.0 0.00 0.00 0.00 63 1010.2
20211016162003 44 158 3.0 4.0 0.00 0.00 0.00 65 1010.2
20211016160903 42 113 2.0 4.0 0.00 0.00 0.00 70 1010.2
20211016155803 39 158 2.0 3.0 0.00 0.00 0.00 73 1010.5
20211016154703 35 113 1.0 3.0 0.00 0.00 0.00 79 1010.5
20211016153603 35 113 3.0 5.0 0.00 0.00 0.00 80 1010.5
20211016152504 34 180 3.0 5.0 0.00 0.00 0.00 83 1010.8
20211016151402 31 113 1.0 2.0 0.00 0.00 0.00 86 1010.5
20211016150204 30 90 1.0 1.0 0.00 0.00 0.00 90 1010.5
20211016145203 29 113 1.0 1.0 0.00 0.00 0.00 90 1010.8
20211016144103 29 135 0.0 0.0 0.00 0.00 0.00 90 1011.2
20211016143004 28 135 0.0 0.0 0.00 0.00 0.00 91 1011.2
20211016141803 27 90 0.0 0.0 0.00 0.00 0.00 91 1011.2
20211016140703 27 158 0.0 1.0 0.00 0.00 0.00 91 1011.2
20211016135603 27 158 0.0 1.0 0.00 0.00 0.00 91 1011.2
20211016134504 26 113 1.0 1.0 0.00 0.00 0.00 93 1011.2